Time,TemperatureF,DewpointF,PressureIn,WindDirection,WindDirectionDegrees,WindSpeedMPH,WindSpeedGustMPH,Humidity,HourlyPrecipIn,Conditions,Clouds,dailyrainin,SoftwareType,DateUTC
2013-09-30 00:14:00,52.9,31.6,29.94,NNW,337,0.0,-999.0,44,-99.99,,,0.00,Acu-Link.com,2013-09-30 06:14:00,
2013-09-30 00:29:00,52.2,32.0,29.94,NE,45,0.0,-999.0,46,-99.99,,,0.00,Acu-Link.com,2013-09-30 06:29:00,
2013-09-30 00:44:00,51.6,31.5,29.94,ESE,112,0.0,-999.0,46,-99.99,,,0.00,Acu-Link.com,2013-09-30 06:44:00,
2013-09-30 01:00:00,51.3,32.8,29.94,WSW,247,0.0,-999.0,49,-99.99,,,0.00,Acu-Link.com,2013-09-30 07:00:00,
2013-09-30 01:15:00,51.3,32.8,29.94,ESE,112,0.0,-999.0,49,-99.99,,,0.00,Acu-Link.com,2013-09-30 07:15:00,
2013-09-30 01:30:00,50.9,32.9,29.94,West,270,1.6,-999.0,50,-99.99,,,0.00,Acu-Link.com,2013-09-30 07:30:00,
2013-09-30 01:45:00,51.8,32.2,29.95,WNW,292,2.2,-999.0,47,-99.99,,,0.00,Acu-Link.com,2013-09-30 07:45:00,
2013-09-30 02:00:00,52.0,30.2,29.95,West,270,0.0,-999.0,43,-99.99,,,0.00,Acu-Link.com,2013-09-30 08:00:00,
2013-09-30 02:16:00,51.8,30.0,29.94,WNW,292,1.1,-999.0,43,-99.99,,,0.00,Acu-Link.com,2013-09-30 08:16:00,
2013-09-30 02:31:00,51.6,29.9,29.94,West,270,2.2,-999.0,43,-99.99,,,0.00,Acu-Link.com,2013-09-30 08:31:00,
2013-09-30 02:47:00,51.8,28.9,29.94,West,270,0.0,-999.0,41,-99.99,,,0.00,Acu-Link.com,2013-09-30 08:47:00,
2013-09-30 03:02:00,51.1,30.5,29.94,South,180,0.0,-999.0,45,-99.99,,,0.00,Acu-Link.com,2013-09-30 09:02:00,
2013-09-30 03:18:00,49.6,32.7,29.94,ESE,112,1.1,-999.0,52,-99.99,,,0.00,Acu-Link.com,2013-09-30 09:18:00,
2013-09-30 03:33:00,49.3,32.4,29.94,ESE,112,0.0,-999.0,52,-99.99,,,0.00,Acu-Link.com,2013-09-30 09:33:00,
2013-09-30 03:48:00,47.7,31.8,29.94,West,270,0.0,-999.0,54,-99.99,,,0.00,Acu-Link.com,2013-09-30 09:48:00,
2013-09-30 04:04:00,46.9,32.9,29.94,West,270,0.0,-999.0,58,-99.99,,,0.00,Acu-Link.com,2013-09-30 10:04:00,
2013-09-30 04:19:00,46.4,32.4,29.93,West,270,0.0,-999.0,58,-99.99,,,0.00,Acu-Link.com,2013-09-30 10:19:00,
2013-09-30 04:34:00,45.9,32.8,29.93,NW,315,0.0,-999.0,60,-99.99,,,0.00,Acu-Link.com,2013-09-30 10:34:00,
2013-09-30 04:49:00,45.3,33.1,29.93,ENE,67,0.0,-999.0,62,-99.99,,,0.00,Acu-Link.com,2013-09-30 10:49:00,
2013-09-30 05:04:00,45.0,33.9,29.94,West,270,0.0,-999.0,65,-99.99,,,0.00,Acu-Link.com,2013-09-30 11:04:00,
2013-09-30 05:21:00,45.3,33.5,29.93,WNW,292,0.0,-999.0,63,-99.99,,,0.00,Acu-Link.com,2013-09-30 11:21:00,
2013-09-30 05:36:00,45.9,34.0,29.93,WNW,292,1.6,-999.0,63,-99.99,,,0.00,Acu-Link.com,2013-09-30 11:36:00,
2013-09-30 05:52:00,46.8,31.5,29.92,West,270,0.0,-999.0,55,-99.99,,,0.00,Acu-Link.com,2013-09-30 11:52:00,
2013-09-30 06:07:00,44.6,34.3,29.94,East,90,1.1,-999.0,67,-99.99,,,0.00,Acu-Link.com,2013-09-30 12:07:00,
2013-09-30 06:22:00,43.9,34.0,29.94,West,270,0.0,-999.0,68,-99.99,,,0.00,Acu-Link.com,2013-09-30 12:22:00,
2013-09-30 06:38:00,43.5,34.4,29.95,SSW,202,0.0,-999.0,70,-99.99,,,0.00,Acu-Link.com,2013-09-30 12:38:00,
2013-09-30 06:53:00,42.8,34.8,29.95,West,270,0.0,-999.0,73,-99.99,,,0.00,Acu-Link.com,2013-09-30 12:53:00,
2013-09-30 07:08:00,43.0,34.6,29.95,ENE,67,2.2,-999.0,72,-99.99,,,0.00,Acu-Link.com,2013-09-30 13:08:00,
2013-09-30 07:23:00,44.6,34.7,29.95,West,270,0.0,-999.0,68,-99.99,,,0.00,Acu-Link.com,2013-09-30 13:23:00,
2013-09-30 07:38:00,47.7,35.3,29.95,NW,315,0.0,-999.0,62,-99.99,,,0.00,Acu-Link.com,2013-09-30 13:38:00,
2013-09-30 07:54:00,51.4,34.9,29.95,WNW,292,3.1,-999.0,53,-99.99,,,0.00,Acu-Link.com,2013-09-30 13:54:00,
2013-09-30 08:09:00,55.6,34.6,29.95,ESE,112,3.1,-999.0,45,-99.99,,,0.00,Acu-Link.com,2013-09-30 14:09:00,
2013-09-30 08:24:00,56.1,37.2,29.96,SE,135,1.6,-999.0,49,-99.99,,,0.00,Acu-Link.com,2013-09-30 14:24:00,
2013-09-30 08:39:00,60.1,37.5,29.95,SE,135,2.7,-999.0,43,-99.99,,,0.00,Acu-Link.com,2013-09-30 14:39:00,
2013-09-30 08:54:00,56.1,35.6,29.95,NNW,337,0.0,-999.0,46,-99.99,,,0.00,Acu-Link.com,2013-09-30 14:54:00,
2013-09-30 09:09:00,56.7,36.1,29.95,SE,135,0.0,-999.0,46,-99.99,,,0.00,Acu-Link.com,2013-09-30 15:09:00,
2013-09-30 09:24:00,61.0,36.5,29.95,NE,45,2.7,-999.0,40,-99.99,,,0.00,Acu-Link.com,2013-09-30 15:24:00,
2013-09-30 09:40:00,61.9,33.9,29.95,NW,315,1.1,-999.0,35,-99.99,,,0.00,Acu-Link.com,2013-09-30 15:40:00,
2013-09-30 09:55:00,63.5,34.6,29.94,ENE,67,3.8,-999.0,34,-99.99,,,0.00,Acu-Link.com,2013-09-30 15:55:00,
2013-09-30 10:10:00,64.2,34.5,29.94,ENE,67,2.7,-999.0,33,-99.99,,,0.00,Acu-Link.com,2013-09-30 16:10:00,
2013-09-30 10:25:00,65.7,35.0,29.94,East,90,2.2,-999.0,32,-99.99,,,0.00,Acu-Link.com,2013-09-30 16:25:00,
2013-09-30 10:40:00,66.2,37.7,29.94,South,180,3.8,-999.0,35,-99.99,,,0.00,Acu-Link.com,2013-09-30 16:40:00,
2013-09-30 10:55:00,68.0,34.6,29.93,SE,135,2.7,-999.0,29,-99.99,,,0.00,Acu-Link.com,2013-09-30 16:55:00,
2013-09-30 11:10:00,70.3,34.8,29.92,ENE,67,1.1,-999.0,27,-99.99,,,0.00,Acu-Link.com,2013-09-30 17:10:00,
2013-09-30 11:25:00,70.7,33.1,29.92,West,270,2.7,-999.0,25,-99.99,,,0.00,Acu-Link.com,2013-09-30 17:25:00,
2013-09-30 11:40:00,73.4,33.3,29.92,South,180,2.2,-999.0,23,-99.99,,,0.00,Acu-Link.com,2013-09-30 17:40:00,
2013-09-30 11:56:00,73.9,34.9,29.91,SW,225,1.6,-999.0,24,-99.99,,,0.00,Acu-Link.com,2013-09-30 17:56:00,
2013-09-30 12:11:00,75.7,35.3,29.90,SE,135,2.7,-999.0,23,-99.99,,,0.00,Acu-Link.com,2013-09-30 18:11:00,
2013-09-30 12:26:00,76.1,35.6,29.90,SSE,157,4.3,-999.0,23,-99.99,,,0.00,Acu-Link.com,2013-09-30 18:26:00,
2013-09-30 12:41:00,76.3,35.8,29.89,South,180,5.1,-999.0,23,-99.99,,,0.00,Acu-Link.com,2013-09-30 18:41:00,
2013-09-30 12:56:00,78.3,35.1,29.89,SSE,157,7.4,-999.0,21,-99.99,,,0.00,Acu-Link.com,2013-09-30 18:56:00,
2013-09-30 13:11:00,80.4,36.9,29.87,North,0,2.2,-999.0,21,-99.99,,,0.00,Acu-Link.com,2013-09-30 19:11:00,
2013-09-30 13:26:00,80.1,36.6,29.87,South,180,5.8,-999.0,21,-99.99,,,0.00,Acu-Link.com,2013-09-30 19:26:00,
2013-09-30 13:41:00,79.9,35.2,29.86,SSE,157,6.7,-999.0,20,-99.99,,,0.00,Acu-Link.com,2013-09-30 19:41:00,
2013-09-30 13:57:00,80.2,36.7,29.84,SSE,157,5.8,-999.0,21,-99.99,,,0.00,Acu-Link.com,2013-09-30 19:57:00,
2013-09-30 14:12:00,81.9,38.1,29.84,SSE,157,6.3,-999.0,21,-99.99,,,0.00,Acu-Link.com,2013-09-30 20:12:00,
2013-09-30 14:27:00,82.8,34.9,29.82,SW,225,3.8,-999.0,18,-99.99,,,0.00,Acu-Link.com,2013-09-30 20:27:00,
2013-09-30 14:42:00,82.4,33.2,29.82,West,270,5.8,-999.0,17,-99.99,,,0.00,Acu-Link.com,2013-09-30 20:42:00,
2013-09-30 14:58:00,81.3,30.8,29.82,WSW,247,7.8,-999.0,16,-99.99,,,0.00,Acu-Link.com,2013-09-30 20:58:00,
2013-09-30 15:13:00,82.2,31.5,29.81,WSW,247,5.1,-999.0,16,-99.99,,,0.00,Acu-Link.com,2013-09-30 21:13:00,
2013-09-30 15:28:00,82.4,31.7,29.80,SW,225,5.1,-999.0,16,-99.99,,,0.00,Acu-Link.com,2013-09-30 21:28:00,
2013-09-30 15:43:00,83.5,32.6,29.79,NNW,337,6.3,-999.0,16,-99.99,,,0.00,Acu-Link.com,2013-09-30 21:43:00,
2013-09-30 15:59:00,82.4,31.7,29.79,SW,225,2.2,-999.0,16,-99.99,,,0.00,Acu-Link.com,2013-09-30 21:59:00,
2013-09-30 16:14:00,84.9,30.4,29.79,West,270,5.1,-999.0,14,-99.99,,,0.00,Acu-Link.com,2013-09-30 22:14:00,
2013-09-30 16:29:00,83.3,30.8,29.79,WNW,292,4.7,-999.0,15,-99.99,,,0.00,Acu-Link.com,2013-09-30 22:29:00,
2013-09-30 16:44:00,84.4,30.0,29.78,NE,45,3.1,-999.0,14,-99.99,,,0.00,Acu-Link.com,2013-09-30 22:44:00,
2013-09-30 16:59:00,83.7,31.1,29.78,SSW,202,4.3,-999.0,15,-99.99,,,0.00,Acu-Link.com,2013-09-30 22:59:00,
2013-09-30 17:15:00,84.2,29.8,29.78,WNW,292,2.7,-999.0,14,-99.99,,,0.00,Acu-Link.com,2013-09-30 23:15:00,
2013-09-30 17:30:00,84.6,30.1,29.78,West,270,3.1,-999.0,14,-99.99,,,0.00,Acu-Link.com,2013-09-30 23:30:00,
2013-09-30 17:45:00,84.7,30.3,29.77,WSW,247,1.1,-999.0,14,-99.99,,,0.00,Acu-Link.com,2013-09-30 23:45:00,
2013-09-30 18:00:00,83.3,30.8,29.77,West,270,3.8,-999.0,15,-99.99,,,0.00,Acu-Link.com,2013-10-01 00:00:00,
2013-09-30 18:15:00,82.2,28.3,29.77,West,270,4.3,-999.0,14,-99.99,,,0.00,Acu-Link.com,2013-10-01 00:15:00,
2013-09-30 18:31:00,80.8,28.8,29.77,WNW,292,3.1,-999.0,15,-99.99,,,0.00,Acu-Link.com,2013-10-01 00:31:00,
2013-09-30 18:46:00,79.9,29.7,29.77,NNW,337,2.2,-999.0,16,-99.99,,,0.00,Acu-Link.com,2013-10-01 00:46:00,
2013-09-30 19:01:00,76.8,30.1,29.78,NW,315,2.7,-999.0,18,-99.99,,,0.00,Acu-Link.com,2013-10-01 01:01:00,
2013-09-30 19:16:00,74.8,28.5,29.78,NNE,22,4.3,-999.0,18,-99.99,,,0.00,Acu-Link.com,2013-10-01 01:16:00,
2013-09-30 19:31:00,73.2,29.7,29.79,WNW,292,2.2,-999.0,20,-99.99,,,0.00,Acu-Link.com,2013-10-01 01:31:00,
2013-09-30 19:47:00,72.0,28.7,29.79,NW,315,3.8,-999.0,20,-99.99,,,0.00,Acu-Link.com,2013-10-01 01:47:00,
2013-09-30 20:02:00,71.4,28.3,29.80,WNW,292,2.7,-999.0,20,-99.99,,,0.00,Acu-Link.com,2013-10-01 02:02:00,
2013-09-30 20:17:00,70.7,27.7,29.80,WSW,247,4.7,-999.0,20,-99.99,,,0.00,Acu-Link.com,2013-10-01 02:17:00,
2013-09-30 20:32:00,70.0,27.1,29.80,North,0,4.3,-999.0,20,-99.99,,,0.00,Acu-Link.com,2013-10-01 02:32:00,
2013-09-30 20:47:00,68.9,26.2,29.81,West,270,0.0,-999.0,20,-99.99,,,0.00,Acu-Link.com,2013-10-01 02:47:00,
2013-09-30 21:03:00,67.8,28.7,29.81,ESE,112,0.0,-999.0,23,-99.99,,,0.00,Acu-Link.com,2013-10-01 03:03:00,
2013-09-30 21:18:00,65.3,30.5,29.82,ESE,112,1.6,-999.0,27,-99.99,,,0.00,Acu-Link.com,2013-10-01 03:18:00,
2013-09-30 21:33:00,63.1,34.3,29.82,SE,135,0.0,-999.0,34,-99.99,,,0.00,Acu-Link.com,2013-10-01 03:33:00,
2013-09-30 21:48:00,62.4,29.7,29.83,East,90,0.0,-999.0,29,-99.99,,,0.00,Acu-Link.com,2013-10-01 03:48:00,
2013-09-30 22:04:00,61.9,29.3,29.83,ESE,112,1.1,-999.0,29,-99.99,,,0.00,Acu-Link.com,2013-10-01 04:04:00,
2013-09-30 22:19:00,61.3,28.0,29.83,South,180,0.0,-999.0,28,-99.99,,,0.00,Acu-Link.com,2013-10-01 04:19:00,
2013-09-30 22:34:00,59.9,29.2,29.83,West,270,0.0,-999.0,31,-99.99,,,0.00,Acu-Link.com,2013-10-01 04:34:00,
2013-09-30 22:49:00,59.2,30.8,29.84,WNW,292,0.0,-999.0,34,-99.99,,,0.00,Acu-Link.com,2013-10-01 04:49:00,
2013-09-30 23:04:00,58.5,30.9,29.83,West,270,0.0,-999.0,35,-99.99,,,0.00,Acu-Link.com,2013-10-01 05:04:00,
2013-09-30 23:20:00,59.0,29.2,29.83,West,270,1.6,-999.0,32,-99.99,,,0.00,Acu-Link.com,2013-10-01 05:20:00,
2013-09-30 23:35:00,57.9,29.7,29.83,West,270,0.0,-999.0,34,-99.99,,,0.00,Acu-Link.com,2013-10-01 05:35:00,
2013-09-30 23:50:00,56.8,30.2,29.83,West,270,0.0,-999.0,36,-99.99,,,0.00,Acu-Link.com,2013-10-01 05:50:00,